Time,TemperatureF,DewpointF,PressureIn,WindDirection,WindDirectionDegrees,WindSpeedMPH,WindSpeedGustMPH,Humidity,HourlyPrecipIn,Conditions,Clouds,dailyrainin,SoftwareType,DateUTC
2013-09-21 00:01:00,66.1,64.9,29.67,WNW,288,0.0,4.0,96,0.04,,,0.00,WUHU216DAVISVP2,2013-09-21 04:01:00,
2013-09-21 00:06:00,66.0,64.8,29.67,WNW,288,0.0,4.0,96,0.04,,,0.01,WUHU216DAVISVP2,2013-09-21 04:06:00,
2013-09-21 00:11:00,66.0,64.8,29.66,West,276,0.0,1.0,96,0.04,,,0.01,WUHU216DAVISVP2,2013-09-21 04:11:00,
2013-09-21 00:16:00,65.9,64.7,29.66,West,279,1.0,4.0,96,0.03,,,0.01,WUHU216DAVISVP2,2013-09-21 04:16:00,
2013-09-21 00:21:00,65.8,64.6,29.66,West,278,0.0,5.0,96,0.03,,,0.01,WUHU216DAVISVP2,2013-09-21 04:21:00,
2013-09-21 00:26:00,65.7,64.5,29.66,West,278,0.0,5.0,96,0.03,,,0.01,WUHU216DAVISVP2,2013-09-21 04:26:00,
2013-09-21 00:31:00,65.6,64.4,29.66,West,263,0.0,4.0,96,0.03,,,0.01,WUHU216DAVISVP2,2013-09-21 04:31:00,
2013-09-21 00:36:00,65.4,64.2,29.66,West,261,1.0,4.0,96,0.03,,,0.02,WUHU216DAVISVP2,2013-09-21 04:36:00,
2013-09-21 00:41:00,65.3,63.8,29.66,West,277,0.0,4.0,95,0.03,,,0.02,WUHU216DAVISVP2,2013-09-21 04:41:00,
2013-09-21 00:46:00,65.2,63.7,29.66,West,281,2.0,4.0,95,0.03,,,0.02,WUHU216DAVISVP2,2013-09-21 04:46:00,
2013-09-21 00:51:00,65.1,63.6,29.66,WNW,282,1.0,4.0,95,0.03,,,0.02,WUHU216DAVISVP2,2013-09-21 04:51:00,
2013-09-21 00:56:00,64.9,63.4,29.66,WSW,248,0.0,5.0,95,0.03,,,0.02,WUHU216DAVISVP2,2013-09-21 04:56:00,
2013-09-21 01:01:00,64.8,63.3,29.66,WSW,238,1.0,5.0,95,0.02,,,0.02,WUHU216DAVISVP2,2013-09-21 05:01:00,
2013-09-21 01:06:00,64.8,63.3,29.66,WSW,252,0.0,2.0,95,0.01,,,0.02,WUHU216DAVISVP2,2013-09-21 05:06:00,
2013-09-21 01:11:00,64.8,63.3,29.66,WSW,252,0.0,2.0,95,0.02,,,0.03,WUHU216DAVISVP2,2013-09-21 05:11:00,
2013-09-21 01:16:00,64.8,63.3,29.66,West,267,1.0,2.0,95,0.02,,,0.03,WUHU216DAVISVP2,2013-09-21 05:16:00,
2013-09-21 01:21:00,64.8,63.6,29.66,WSW,246,0.0,3.0,96,0.02,,,0.03,WUHU216DAVISVP2,2013-09-21 05:21:00,
2013-09-21 01:26:00,64.9,63.7,29.65,WSW,242,0.0,3.0,96,0.02,,,0.03,WUHU216DAVISVP2,2013-09-21 05:26:00,
2013-09-21 01:31:00,64.8,63.6,29.65,WSW,247,1.0,2.0,96,0.02,,,0.03,WUHU216DAVISVP2,2013-09-21 05:31:00,
2013-09-21 01:36:00,64.7,63.5,29.65,WNW,291,1.0,4.0,96,0.01,,,0.03,WUHU216DAVISVP2,2013-09-21 05:36:00,
2013-09-21 01:41:00,64.7,63.5,29.65,West,277,2.0,5.0,96,0.01,,,0.03,WUHU216DAVISVP2,2013-09-21 05:41:00,
2013-09-21 01:46:00,64.6,63.4,29.65,West,275,0.0,6.0,96,0.01,,,0.03,WUHU216DAVISVP2,2013-09-21 05:46:00,
2013-09-21 01:51:00,64.6,63.4,29.65,West,273,0.0,6.0,96,0.01,,,0.03,WUHU216DAVISVP2,2013-09-21 05:51:00,
2013-09-21 01:56:00,64.5,63.3,29.65,West,275,0.0,2.0,96,0.01,,,0.03,WUHU216DAVISVP2,2013-09-21 05:56:00,
2013-09-21 02:01:00,64.6,63.4,29.65,West,276,0.0,2.0,96,0.01,,,0.03,WUHU216DAVISVP2,2013-09-21 06:01:00,
2013-09-21 02:06:00,64.5,63.3,29.65,West,275,1.0,2.0,96,0.01,,,0.03,WUHU216DAVISVP2,2013-09-21 06:06:00,
2013-09-21 02:11:00,64.6,63.4,29.65,West,268,0.0,2.0,96,0.00,,,0.03,WUHU216DAVISVP2,2013-09-21 06:11:00,
2013-09-21 02:16:00,64.5,63.3,29.65,West,268,0.0,1.0,96,0.00,,,0.03,WUHU216DAVISVP2,2013-09-21 06:16:00,
2013-09-21 02:21:00,64.5,63.3,29.65,West,269,0.0,1.0,96,0.00,,,0.03,WUHU216DAVISVP2,2013-09-21 06:21:00,
2013-09-21 02:26:00,64.5,63.3,29.65,West,266,0.0,3.0,96,0.00,,,0.03,WUHU216DAVISVP2,2013-09-21 06:26:00,
2013-09-21 02:31:00,64.5,63.3,29.65,West,266,0.0,3.0,96,0.00,,,0.03,WUHU216DAVISVP2,2013-09-21 06:31:00,
2013-09-21 02:36:00,64.5,63.3,29.65,West,266,0.0,1.0,96,0.00,,,0.03,WUHU216DAVISVP2,2013-09-21 06:36:00,
2013-09-21 02:41:00,64.4,63.2,29.65,West,262,0.0,2.0,96,0.00,,,0.03,WUHU216DAVISVP2,2013-09-21 06:41:00,
2013-09-21 02:46:00,64.4,63.2,29.65,West,262,1.0,2.0,96,0.00,,,0.03,WUHU216DAVISVP2,2013-09-21 06:46:00,
2013-09-21 02:51:00,64.3,63.1,29.65,West,277,3.0,5.0,96,0.00,,,0.03,WUHU216DAVISVP2,2013-09-21 06:51:00,
2013-09-21 02:56:00,64.3,63.1,29.65,West,277,2.0,5.0,96,0.00,,,0.03,WUHU216DAVISVP2,2013-09-21 06:56:00,
2013-09-21 03:01:00,64.2,63.0,29.64,West,279,0.0,4.0,96,0.00,,,0.03,WUHU216DAVISVP2,2013-09-21 07:01:00,
2013-09-21 03:06:00,64.2,63.0,29.64,West,279,0.0,4.0,96,0.00,,,0.03,WUHU216DAVISVP2,2013-09-21 07:06:00,
2013-09-21 03:11:00,64.1,62.9,29.64,WNW,296,4.0,5.0,96,0.00,,,0.03,WUHU216DAVISVP2,2013-09-21 07:11:00,
2013-09-21 03:16:00,64.0,62.8,29.64,WNW,294,1.0,5.0,96,0.00,,,0.03,WUHU216DAVISVP2,2013-09-21 07:16:00,
2013-09-21 03:21:00,64.0,62.8,29.64,NW,322,4.0,8.0,96,0.00,,,0.03,WUHU216DAVISVP2,2013-09-21 07:21:00,
2013-09-21 03:26:00,63.9,62.7,29.64,WNW,296,5.0,8.0,96,0.00,,,0.03,WUHU216DAVISVP2,2013-09-21 07:26:00,
2013-09-21 03:31:00,63.8,62.6,29.64,WNW,299,5.0,6.0,96,0.00,,,0.03,WUHU216DAVISVP2,2013-09-21 07:31:00,
2013-09-21 03:36:00,63.6,62.4,29.64,NW,323,7.0,7.0,96,0.00,,,0.03,WUHU216DAVISVP2,2013-09-21 07:36:00,
2013-09-21 03:41:00,63.5,62.0,29.63,NW,319,1.0,8.0,95,0.00,,,0.03,WUHU216DAVISVP2,2013-09-21 07:41:00,
2013-09-21 03:46:00,63.2,61.1,29.64,WNW,303,2.0,8.0,93,0.00,,,0.03,WUHU216DAVISVP2,2013-09-21 07:46:00,
2013-09-21 03:51:00,63.1,61.0,29.63,NW,316,4.0,8.0,93,0.00,,,0.03,WUHU216DAVISVP2,2013-09-21 07:51:00,
2013-09-21 03:56:00,63.0,60.9,29.63,NW,311,1.0,7.0,93,0.00,,,0.03,WUHU216DAVISVP2,2013-09-21 07:56:00,
2013-09-21 04:01:00,62.9,60.5,29.63,WNW,302,0.0,4.0,92,0.00,,,0.03,WUHU216DAVISVP2,2013-09-21 08:01:00,
2013-09-21 04:06:00,62.7,60.6,29.63,WNW,297,1.0,4.0,93,0.00,,,0.03,WUHU216DAVISVP2,2013-09-21 08:06:00,
2013-09-21 04:11:00,62.5,60.4,29.63,NW,304,1.0,4.0,93,0.00,,,0.03,WUHU216DAVISVP2,2013-09-21 08:11:00,
2013-09-21 04:16:00,62.3,60.2,29.63,WNW,292,4.0,5.0,93,0.00,,,0.03,WUHU216DAVISVP2,2013-09-21 08:16:00,
2013-09-21 04:21:00,62.2,60.1,29.63,WNW,282,5.0,6.0,93,0.00,,,0.03,WUHU216DAVISVP2,2013-09-21 08:21:00,
2013-09-21 04:26:00,62.1,60.0,29.63,WNW,301,2.0,6.0,93,0.00,,,0.03,WUHU216DAVISVP2,2013-09-21 08:26:00,
2013-09-21 04:31:00,62.1,60.0,29.63,NW,320,0.0,6.0,93,0.00,,,0.03,WUHU216DAVISVP2,2013-09-21 08:31:00,
2013-09-21 04:36:00,62.0,60.2,29.63,NW,313,1.0,5.0,94,0.00,,,0.03,WUHU216DAVISVP2,2013-09-21 08:36:00,
2013-09-21 04:41:00,61.9,60.1,29.63,WNW,289,0.0,5.0,94,0.00,,,0.03,WUHU216DAVISVP2,2013-09-21 08:41:00,
2013-09-21 04:46:00,61.8,60.0,29.63,West,281,4.0,5.0,94,0.00,,,0.03,WUHU216DAVISVP2,2013-09-21 08:46:00,
2013-09-21 04:51:00,61.7,59.6,29.63,WNW,294,2.0,6.0,93,0.00,,,0.03,WUHU216DAVISVP2,2013-09-21 08:51:00,
2013-09-21 04:56:00,61.6,59.5,29.63,WNW,293,3.0,6.0,93,0.00,,,0.03,WUHU216DAVISVP2,2013-09-21 08:56:00,
2013-09-21 05:01:00,61.4,59.3,29.63,NW,310,2.0,6.0,93,0.00,,,0.03,WUHU216DAVISVP2,2013-09-21 09:01:00,
2013-09-21 05:06:00,61.3,59.2,29.63,WNW,303,1.0,8.0,93,0.00,,,0.03,WUHU216DAVISVP2,2013-09-21 09:06:00,
2013-09-21 05:11:00,61.2,59.1,29.63,WNW,294,0.0,8.0,93,0.00,,,0.03,WUHU216DAVISVP2,2013-09-21 09:11:00,
2013-09-21 05:16:00,61.0,58.9,29.63,WNW,290,0.0,6.0,93,0.00,,,0.03,WUHU216DAVISVP2,2013-09-21 09:16:00,
2013-09-21 05:21:00,60.9,58.8,29.63,WNW,303,0.0,5.0,93,0.00,,,0.03,WUHU216DAVISVP2,2013-09-21 09:21:00,
2013-09-21 05:26:00,60.7,58.6,29.63,WNW,293,4.0,5.0,93,0.00,,,0.03,WUHU216DAVISVP2,2013-09-21 09:26:00,
2013-09-21 05:31:00,60.6,58.5,29.63,WNW,282,2.0,6.0,93,0.00,,,0.03,WUHU216DAVISVP2,2013-09-21 09:31:00,
2013-09-21 05:36:00,60.5,58.4,29.63,WNW,290,4.0,6.0,93,0.00,,,0.03,WUHU216DAVISVP2,2013-09-21 09:36:00,
2013-09-21 05:41:00,60.4,58.3,29.63,West,268,2.0,5.0,93,0.00,,,0.03,WUHU216DAVISVP2,2013-09-21 09:41:00,
2013-09-21 05:46:00,60.2,58.1,29.63,West,277,1.0,5.0,93,0.00,,,0.03,WUHU216DAVISVP2,2013-09-21 09:46:00,
2013-09-21 05:51:00,60.1,58.0,29.63,NW,308,0.0,6.0,93,0.00,,,0.03,WUHU216DAVISVP2,2013-09-21 09:51:00,
2013-09-21 05:56:00,60.0,57.9,29.62,West,269,4.0,6.0,93,0.00,,,0.03,WUHU216DAVISVP2,2013-09-21 09:56:00,
2013-09-21 06:01:00,59.9,57.8,29.62,WNW,296,0.0,7.0,93,0.00,,,0.03,WUHU216DAVISVP2,2013-09-21 10:01:00,
2013-09-21 06:06:00,59.9,57.8,29.63,WNW,289,0.0,7.0,93,0.00,,,0.03,WUHU216DAVISVP2,2013-09-21 10:06:00,
2013-09-21 06:11:00,59.8,57.7,29.63,NW,304,4.0,4.0,93,0.00,,,0.03,WUHU216DAVISVP2,2013-09-21 10:11:00,
2013-09-21 06:16:00,59.7,57.7,29.62,WNW,292,1.0,5.0,93,0.00,,,0.03,WUHU216DAVISVP2,2013-09-21 10:16:00,
2013-09-21 06:21:00,59.6,57.6,29.62,WNW,291,0.0,5.0,93,0.00,,,0.03,WUHU216DAVISVP2,2013-09-21 10:21:00,
2013-09-21 06:26:00,59.6,57.6,29.62,NW,307,2.0,5.0,93,0.00,,,0.03,WUHU216DAVISVP2,2013-09-21 10:26:00,
2013-09-21 06:31:00,59.5,57.5,29.63,WNW,286,1.0,5.0,93,0.00,,,0.03,WUHU216DAVISVP2,2013-09-21 10:31:00,
2013-09-21 06:36:00,59.4,57.4,29.63,WNW,282,1.0,4.0,93,0.00,,,0.03,WUHU216DAVISVP2,2013-09-21 10:36:00,
2013-09-21 06:41:00,59.4,57.4,29.63,WNW,282,0.0,4.0,93,0.00,,,0.03,WUHU216DAVISVP2,2013-09-21 10:41:00,
2013-09-21 06:46:00,59.3,57.3,29.62,West,271,0.0,6.0,93,0.00,,,0.03,WUHU216DAVISVP2,2013-09-21 10:46:00,
2013-09-21 06:51:00,59.3,57.6,29.62,West,276,0.0,6.0,94,0.00,,,0.03,WUHU216DAVISVP2,2013-09-21 10:51:00,
2013-09-21 06:56:00,59.2,57.5,29.62,West,273,1.0,2.0,94,0.00,,,0.03,WUHU216DAVISVP2,2013-09-21 10:56:00,
2013-09-21 07:01:00,59.1,57.4,29.62,West,273,0.0,2.0,94,0.00,,,0.03,WUHU216DAVISVP2,2013-09-21 11:01:00,
2013-09-21 07:06:00,59.0,57.3,29.62,West,275,1.0,4.0,94,0.00,,,0.03,WUHU216DAVISVP2,2013-09-21 11:06:00,
2013-09-21 07:11:00,58.9,57.2,29.62,West,275,0.0,4.0,94,0.00,,,0.03,WUHU216DAVISVP2,2013-09-21 11:11:00,
2013-09-21 07:16:00,58.9,57.2,29.62,West,260,0.0,2.0,94,0.00,,,0.03,WUHU216DAVISVP2,2013-09-21 11:16:00,
2013-09-21 07:21:00,58.8,57.1,29.62,West,260,0.0,1.0,94,0.00,,,0.03,WUHU216DAVISVP2,2013-09-21 11:21:00,
2013-09-21 07:26:00,58.7,57.0,29.62,West,260,0.0,1.0,94,0.00,,,0.03,WUHU216DAVISVP2,2013-09-21 11:26:00,
2013-09-21 07:31:00,58.6,56.9,29.62,West,260,0.0,1.0,94,0.00,,,0.03,WUHU216DAVISVP2,2013-09-21 11:31:00,
2013-09-21 07:36:00,58.6,56.9,29.63,West,260,0.0,1.0,94,0.00,,,0.03,WUHU216DAVISVP2,2013-09-21 11:36:00,
2013-09-21 07:41:00,58.6,56.8,29.63,West,261,0.0,1.0,94,0.00,,,0.03,WUHU216DAVISVP2,2013-09-21 11:41:00,
2013-09-21 07:46:00,58.5,56.7,29.63,West,261,1.0,1.0,94,0.00,,,0.03,WUHU216DAVISVP2,2013-09-21 11:46:00,
2013-09-21 07:51:00,58.5,57.0,29.63,West,267,1.0,4.0,95,0.00,,,0.03,WUHU216DAVISVP2,2013-09-21 11:51:00,
2013-09-21 07:56:00,58.4,56.9,29.64,West,267,0.0,4.0,95,0.00,,,0.03,WUHU216DAVISVP2,2013-09-21 11:56:00,
2013-09-21 08:01:00,58.3,56.8,29.63,West,267,0.0,4.0,95,0.00,,,0.03,WUHU216DAVISVP2,2013-09-21 12:01:00,
2013-09-21 08:06:00,58.2,56.7,29.63,West,273,0.0,3.0,95,0.00,,,0.03,WUHU216DAVISVP2,2013-09-21 12:06:00,
2013-09-21 08:11:00,58.2,56.7,29.64,West,274,1.0,3.0,95,0.00,,,0.03,WUHU216DAVISVP2,2013-09-21 12:11:00,
2013-09-21 08:16:00,58.1,56.6,29.64,West,276,4.0,5.0,95,0.00,,,0.03,WUHU216DAVISVP2,2013-09-21 12:16:00,
2013-09-21 08:21:00,58.1,56.6,29.64,WNW,284,5.0,5.0,95,0.00,,,0.03,WUHU216DAVISVP2,2013-09-21 12:21:00,
2013-09-21 08:26:00,58.1,56.6,29.64,WNW,294,0.0,7.0,95,0.00,,,0.03,WUHU216DAVISVP2,2013-09-21 12:26:00,
2013-09-21 08:31:00,58.1,56.6,29.64,WNW,298,1.0,7.0,95,0.00,,,0.03,WUHU216DAVISVP2,2013-09-21 12:31:00,
2013-09-21 08:36:00,58.1,56.6,29.64,WNW,283,1.0,6.0,95,0.00,,,0.03,WUHU216DAVISVP2,2013-09-21 12:36:00,
2013-09-21 08:41:00,58.2,56.7,29.64,WNW,292,4.0,8.0,95,0.00,,,0.03,WUHU216DAVISVP2,2013-09-21 12:41:00,
2013-09-21 08:46:00,58.3,56.8,29.64,WNW,292,4.0,8.0,95,0.00,,,0.03,WUHU216DAVISVP2,2013-09-21 12:46:00,
2013-09-21 08:51:00,58.4,56.6,29.64,WNW,301,5.0,9.0,94,0.00,,,0.03,WUHU216DAVISVP2,2013-09-21 12:51:00,
2013-09-21 08:56:00,58.5,56.7,29.64,NW,309,1.0,9.0,94,0.00,,,0.03,WUHU216DAVISVP2,2013-09-21 12:56:00,
2013-09-21 09:01:00,58.6,56.8,29.64,WNW,293,2.0,7.0,94,0.00,,,0.03,WUHU216DAVISVP2,2013-09-21 13:01:00,
2013-09-21 09:06:00,58.7,56.9,29.65,NW,318,6.0,7.0,94,0.00,,,0.03,WUHU216DAVISVP2,2013-09-21 13:06:00,
2013-09-21 09:11:00,58.7,56.9,29.65,WNW,300,2.0,9.0,94,0.00,,,0.03,WUHU216DAVISVP2,2013-09-21 13:11:00,
2013-09-21 09:16:00,58.9,56.8,29.65,NW,317,5.0,9.0,93,0.00,,,0.03,WUHU216DAVISVP2,2013-09-21 13:16:00,
2013-09-21 09:21:00,58.9,56.8,29.65,WNW,284,2.0,8.0,93,0.00,,,0.03,WUHU216DAVISVP2,2013-09-21 13:21:00,
2013-09-21 09:26:00,59.0,57.5,29.65,NW,309,1.0,11.0,95,0.00,,,0.03,WUHU216DAVISVP2,2013-09-21 13:26:00,
2013-09-21 09:31:00,59.0,56.6,29.65,NW,317,4.0,12.0,92,0.00,,,0.03,WUHU216DAVISVP2,2013-09-21 13:31:00,
2013-09-21 09:36:00,59.3,56.9,29.65,NW,305,2.0,12.0,92,0.00,,,0.03,WUHU216DAVISVP2,2013-09-21 13:36:00,
2013-09-21 09:41:00,59.5,56.8,29.65,WNW,291,8.0,12.0,91,0.00,,,0.03,WUHU216DAVISVP2,2013-09-21 13:41:00,
2013-09-21 09:46:00,59.8,57.1,29.65,NW,314,4.0,12.0,91,0.00,,,0.03,WUHU216DAVISVP2,2013-09-21 13:46:00,
2013-09-21 09:51:00,60.1,57.1,29.66,NW,324,8.0,10.0,90,0.00,,,0.03,WUHU216DAVISVP2,2013-09-21 13:51:00,
2013-09-21 09:56:00,60.5,57.2,29.66,NNW,330,7.0,13.0,89,0.00,,,0.03,WUHU216DAVISVP2,2013-09-21 13:56:00,
2013-09-21 10:01:00,60.7,57.1,29.66,NW,307,4.0,13.0,88,0.00,,,0.03,WUHU216DAVISVP2,2013-09-21 14:01:00,
2013-09-21 10:06:00,60.7,57.1,29.66,NW,320,5.0,13.0,88,0.00,,,0.03,WUHU216DAVISVP2,2013-09-21 14:06:00,
2013-09-21 10:11:00,60.5,56.9,29.66,WNW,302,3.0,13.0,88,0.00,,,0.03,WUHU216DAVISVP2,2013-09-21 14:11:00,
2013-09-21 10:16:00,60.5,56.6,29.66,NW,304,4.0,12.0,87,0.00,,,0.03,WUHU216DAVISVP2,2013-09-21 14:16:00,
2013-09-21 10:21:00,60.4,56.8,29.66,NW,315,6.0,12.0,88,0.00,,,0.03,WUHU216DAVISVP2,2013-09-21 14:21:00,
2013-09-21 10:26:00,60.4,56.8,29.66,NW,305,8.0,12.0,88,0.00,,,0.03,WUHU216DAVISVP2,2013-09-21 14:26:00,
2013-09-21 10:31:00,60.4,56.5,29.66,NW,316,5.0,11.0,87,0.00,,,0.03,WUHU216DAVISVP2,2013-09-21 14:31:00,
2013-09-21 10:36:00,60.4,56.5,29.66,NW,317,9.0,10.0,87,0.00,,,0.03,WUHU216DAVISVP2,2013-09-21 14:36:00,
2013-09-21 10:41:00,60.5,56.9,29.66,NW,317,2.0,10.0,88,0.00,,,0.03,WUHU216DAVISVP2,2013-09-21 14:41:00,
2013-09-21 10:46:00,60.5,56.6,29.66,NW,318,5.0,9.0,87,0.00,,,0.03,WUHU216DAVISVP2,2013-09-21 14:46:00,
2013-09-21 10:51:00,60.6,56.7,29.67,NNW,333,8.0,10.0,87,0.00,,,0.03,WUHU216DAVISVP2,2013-09-21 14:51:00,
2013-09-21 10:56:00,60.9,57.0,29.66,WNW,292,6.0,10.0,87,0.00,,,0.03,WUHU216DAVISVP2,2013-09-21 14:56:00,
2013-09-21 11:01:00,61.3,56.8,29.66,NW,306,8.0,14.0,85,0.00,,,0.03,WUHU216DAVISVP2,2013-09-21 15:01:00,
2013-09-21 11:06:00,61.8,57.3,29.66,NW,311,7.0,14.0,85,0.00,,,0.03,WUHU216DAVISVP2,2013-09-21 15:06:00,
2013-09-21 11:11:00,62.0,57.4,29.67,WNW,289,6.0,14.0,85,0.00,,,0.03,WUHU216DAVISVP2,2013-09-21 15:11:00,
2013-09-21 11:16:00,62.5,56.6,29.66,NW,318,6.0,13.0,81,0.00,,,0.03,WUHU216DAVISVP2,2013-09-21 15:16:00,
2013-09-21 11:21:00,62.8,56.9,29.66,NW,313,6.0,13.0,81,0.00,,,0.03,WUHU216DAVISVP2,2013-09-21 15:21:00,
2013-09-21 11:26:00,62.6,56.4,29.67,WNW,292,9.0,12.0,80,0.00,,,0.03,WUHU216DAVISVP2,2013-09-21 15:26:00,
2013-09-21 11:31:00,62.9,57.4,29.67,NNW,340,7.0,12.0,82,0.00,,,0.03,WUHU216DAVISVP2,2013-09-21 15:31:00,
2013-09-21 11:36:00,63.6,57.4,29.67,WNW,291,8.0,13.0,80,0.00,,,0.03,WUHU216DAVISVP2,2013-09-21 15:36:00,
2013-09-21 11:41:00,64.0,57.1,29.67,NNW,333,12.0,14.0,78,0.00,,,0.03,WUHU216DAVISVP2,2013-09-21 15:41:00,
2013-09-21 11:46:00,63.7,57.5,29.67,WNW,294,7.0,14.0,80,0.00,,,0.03,WUHU216DAVISVP2,2013-09-21 15:46:00,
2013-09-21 11:51:00,63.3,56.8,29.67,NW,315,6.0,13.0,79,0.00,,,0.03,WUHU216DAVISVP2,2013-09-21 15:51:00,
2013-09-21 11:56:00,63.0,56.8,29.67,WNW,300,8.0,10.0,80,0.00,,,0.03,WUHU216DAVISVP2,2013-09-21 15:56:00,
2013-09-21 12:01:00,63.5,56.9,29.67,NNW,329,9.0,14.0,79,0.00,,,0.03,WUHU216DAVISVP2,2013-09-21 16:01:00,
2013-09-21 12:06:00,64.1,56.5,29.67,NW,318,5.0,14.0,76,0.00,,,0.03,WUHU216DAVISVP2,2013-09-21 16:06:00,
2013-09-21 12:11:00,64.7,57.1,29.67,NNW,334,5.0,12.0,76,0.00,,,0.03,WUHU216DAVISVP2,2013-09-21 16:11:00,
2013-09-21 12:16:00,65.2,57.2,29.67,North,351,9.0,13.0,75,0.00,,,0.03,WUHU216DAVISVP2,2013-09-21 16:16:00,
2013-09-21 12:21:00,65.1,56.4,29.66,NW,307,7.0,13.0,73,0.00,,,0.03,WUHU216DAVISVP2,2013-09-21 16:21:00,
2013-09-21 12:26:00,64.9,56.9,29.67,NNW,345,8.0,13.0,75,0.00,,,0.03,WUHU216DAVISVP2,2013-09-21 16:26:00,
2013-09-21 12:31:00,65.8,56.7,29.67,NNW,338,7.0,13.0,72,0.00,,,0.03,WUHU216DAVISVP2,2013-09-21 16:31:00,
2013-09-21 12:36:00,65.3,55.4,29.67,NW,323,7.0,13.0,70,0.00,,,0.03,WUHU216DAVISVP2,2013-09-21 16:36:00,
2013-09-21 12:41:00,64.3,56.0,29.67,WNW,284,6.0,14.0,74,0.00,,,0.03,WUHU216DAVISVP2,2013-09-21 16:41:00,
2013-09-21 12:46:00,62.5,56.0,29.67,WNW,290,5.0,16.0,79,0.00,,,0.03,WUHU216DAVISVP2,2013-09-21 16:46:00,
2013-09-21 12:51:00,61.3,56.1,29.68,West,271,4.0,16.0,83,0.00,,,0.03,WUHU216DAVISVP2,2013-09-21 16:51:00,
2013-09-21 12:56:00,61.0,56.5,29.68,WNW,292,6.0,13.0,85,0.00,,,0.03,WUHU216DAVISVP2,2013-09-21 16:56:00,
2013-09-21 13:01:00,61.0,56.5,29.68,WSW,248,5.0,12.0,85,0.00,,,0.03,WUHU216DAVISVP2,2013-09-21 17:01:00,
2013-09-21 13:06:00,61.3,56.4,29.68,West,281,8.0,13.0,84,0.00,,,0.03,WUHU216DAVISVP2,2013-09-21 17:06:00,
2013-09-21 13:11:00,62.2,57.3,29.68,WSW,255,7.0,13.0,84,0.00,,,0.03,WUHU216DAVISVP2,2013-09-21 17:11:00,
2013-09-21 13:16:00,63.6,56.7,29.68,WNW,289,9.0,15.0,78,0.00,,,0.03,WUHU216DAVISVP2,2013-09-21 17:16:00,
2013-09-21 13:21:00,64.6,57.0,29.68,NW,315,14.0,15.0,76,0.00,,,0.03,WUHU216DAVISVP2,2013-09-21 17:21:00,
2013-09-21 13:26:00,65.4,55.7,29.68,WNW,301,6.0,14.0,71,0.00,,,0.03,WUHU216DAVISVP2,2013-09-21 17:26:00,
2013-09-21 13:31:00,65.6,55.5,29.68,WNW,293,9.0,14.0,70,0.00,,,0.03,WUHU216DAVISVP2,2013-09-21 17:31:00,
2013-09-21 13:36:00,65.9,55.4,29.68,WNW,299,7.0,12.0,69,0.00,,,0.03,WUHU216DAVISVP2,2013-09-21 17:36:00,
2013-09-21 13:41:00,65.9,55.4,29.68,NW,305,7.0,12.0,69,0.00,,,0.03,WUHU216DAVISVP2,2013-09-21 17:41:00,
2013-09-21 13:46:00,65.6,54.8,29.68,WNW,299,6.0,12.0,68,0.00,,,0.03,WUHU216DAVISVP2,2013-09-21 17:46:00,
2013-09-21 13:51:00,66.1,53.6,29.68,West,267,5.0,15.0,64,0.00,,,0.03,WUHU216DAVISVP2,2013-09-21 17:51:00,
2013-09-21 13:56:00,66.0,53.9,29.68,North,360,8.0,15.0,65,0.00,,,0.03,WUHU216DAVISVP2,2013-09-21 17:56:00,
2013-09-21 14:01:00,66.1,55.2,29.68,NNW,347,7.0,13.0,68,0.00,,,0.03,WUHU216DAVISVP2,2013-09-21 18:01:00,
2013-09-21 14:06:00,66.5,53.5,29.68,NNW,327,7.0,16.0,63,0.00,,,0.03,WUHU216DAVISVP2,2013-09-21 18:06:00,
2013-09-21 14:11:00,66.6,52.3,29.68,North,5,7.0,18.0,60,0.00,,,0.03,WUHU216DAVISVP2,2013-09-21 18:11:00,
2013-09-21 14:16:00,66.9,52.3,29.68,WNW,286,4.0,18.0,59,0.00,,,0.03,WUHU216DAVISVP2,2013-09-21 18:16:00,
2013-09-21 14:21:00,67.2,53.5,29.67,WNW,298,8.0,14.0,61,0.00,,,0.03,WUHU216DAVISVP2,2013-09-21 18:21:00,
2013-09-21 14:26:00,67.2,53.9,29.67,NW,324,11.0,14.0,62,0.00,,,0.03,WUHU216DAVISVP2,2013-09-21 18:26:00,
2013-09-21 14:31:00,66.8,52.2,29.67,NW,325,9.0,14.0,59,0.00,,,0.03,WUHU216DAVISVP2,2013-09-21 18:31:00,
2013-09-21 14:36:00,66.8,52.6,29.67,NNW,332,7.0,14.0,60,0.00,,,0.03,WUHU216DAVISVP2,2013-09-21 18:36:00,
2013-09-21 14:41:00,66.1,52.0,29.67,NW,321,5.0,13.0,60,0.00,,,0.03,WUHU216DAVISVP2,2013-09-21 18:41:00,
2013-09-21 14:46:00,65.7,52.0,29.68,WNW,290,5.0,15.0,61,0.00,,,0.03,WUHU216DAVISVP2,2013-09-21 18:46:00,
2013-09-21 14:51:00,66.2,52.1,29.68,NNW,339,4.0,15.0,60,0.00,,,0.03,WUHU216DAVISVP2,2013-09-21 18:51:00,
2013-09-21 14:56:00,66.7,51.6,29.68,WNW,297,10.0,16.0,58,0.00,,,0.03,WUHU216DAVISVP2,2013-09-21 18:56:00,
2013-09-21 15:01:00,67.0,51.4,29.68,NW,313,6.0,16.0,57,0.00,,,0.03,WUHU216DAVISVP2,2013-09-21 19:01:00,
2013-09-21 15:06:00,67.4,51.8,29.68,NW,320,10.0,15.0,57,0.00,,,0.03,WUHU216DAVISVP2,2013-09-21 19:06:00,
2013-09-21 15:11:00,66.7,51.1,29.68,North,351,9.0,18.0,57,0.00,,,0.03,WUHU216DAVISVP2,2013-09-21 19:11:00,
2013-09-21 15:16:00,66.0,51.4,29.68,NW,317,7.0,18.0,59,0.00,,,0.03,WUHU216DAVISVP2,2013-09-21 19:16:00,
2013-09-21 15:21:00,66.3,50.7,29.68,NNW,337,10.0,13.0,57,0.00,,,0.03,WUHU216DAVISVP2,2013-09-21 19:21:00,
2013-09-21 15:26:00,65.8,50.3,29.68,NW,323,7.0,13.0,57,0.00,,,0.03,WUHU216DAVISVP2,2013-09-21 19:26:00,
2013-09-21 15:31:00,66.0,51.9,29.68,WNW,282,4.0,13.0,60,0.00,,,0.03,WUHU216DAVISVP2,2013-09-21 19:31:00,
2013-09-21 15:36:00,66.5,51.9,29.68,NW,308,8.0,12.0,59,0.00,,,0.03,WUHU216DAVISVP2,2013-09-21 19:36:00,
2013-09-21 15:41:00,66.8,51.2,29.68,WNW,291,9.0,12.0,57,0.00,,,0.03,WUHU216DAVISVP2,2013-09-21 19:41:00,
2013-09-21 15:46:00,67.0,51.4,29.68,NW,313,2.0,15.0,57,0.00,,,0.03,WUHU216DAVISVP2,2013-09-21 19:46:00,
2013-09-21 15:51:00,67.0,50.4,29.68,WNW,296,11.0,16.0,55,0.00,,,0.03,WUHU216DAVISVP2,2013-09-21 19:51:00,
2013-09-21 15:56:00,66.6,50.0,29.68,West,271,8.0,16.0,55,0.00,,,0.03,WUHU216DAVISVP2,2013-09-21 19:56:00,
2013-09-21 16:01:00,66.8,51.2,29.68,NW,315,8.0,16.0,57,0.00,,,0.03,WUHU216DAVISVP2,2013-09-21 20:01:00,
2013-09-21 16:06:00,67.1,51.0,29.68,WNW,302,9.0,12.0,56,0.00,,,0.03,WUHU216DAVISVP2,2013-09-21 20:06:00,
2013-09-21 16:11:00,67.2,51.1,29.68,NW,309,5.0,12.0,56,0.00,,,0.03,WUHU216DAVISVP2,2013-09-21 20:11:00,
2013-09-21 16:16:00,67.2,50.6,29.68,NNW,335,8.0,13.0,55,0.00,,,0.03,WUHU216DAVISVP2,2013-09-21 20:16:00,
2013-09-21 16:21:00,67.0,50.9,29.68,NNW,330,7.0,13.0,56,0.00,,,0.03,WUHU216DAVISVP2,2013-09-21 20:21:00,
2013-09-21 16:26:00,67.4,50.8,29.69,NNE,22,7.0,13.0,55,0.00,,,0.03,WUHU216DAVISVP2,2013-09-21 20:26:00,
2013-09-21 16:31:00,66.8,49.7,29.69,NNW,343,14.0,16.0,54,0.00,,,0.03,WUHU216DAVISVP2,2013-09-21 20:31:00,
2013-09-21 16:36:00,66.2,50.6,29.69,NNW,338,6.0,16.0,57,0.00,,,0.03,WUHU216DAVISVP2,2013-09-21 20:36:00,
2013-09-21 16:41:00,66.1,50.1,29.69,NNW,338,10.0,13.0,56,0.00,,,0.03,WUHU216DAVISVP2,2013-09-21 20:41:00,
2013-09-21 16:46:00,66.0,50.5,29.69,NNW,341,4.0,14.0,57,0.00,,,0.03,WUHU216DAVISVP2,2013-09-21 20:46:00,
2013-09-21 16:51:00,65.9,49.9,29.69,North,5,5.0,15.0,56,0.00,,,0.03,WUHU216DAVISVP2,2013-09-21 20:51:00,
2013-09-21 16:56:00,65.3,49.8,29.69,West,280,8.0,15.0,57,0.00,,,0.03,WUHU216DAVISVP2,2013-09-21 20:56:00,
2013-09-21 17:01:00,65.6,50.1,29.69,NNW,327,0.0,11.0,57,0.00,,,0.03,WUHU216DAVISVP2,2013-09-21 21:01:00,
2013-09-21 17:06:00,66.1,49.6,29.69,NNW,327,4.0,15.0,55,0.00,,,0.03,WUHU216DAVISVP2,2013-09-21 21:06:00,
2013-09-21 17:11:00,66.2,48.6,29.69,NNW,335,6.0,15.0,53,0.00,,,0.03,WUHU216DAVISVP2,2013-09-21 21:11:00,
2013-09-21 17:16:00,66.1,49.1,29.69,WNW,289,8.0,15.0,54,0.00,,,0.03,WUHU216DAVISVP2,2013-09-21 21:16:00,
2013-09-21 17:21:00,66.0,47.9,29.70,NNW,339,10.0,15.0,52,0.00,,,0.03,WUHU216DAVISVP2,2013-09-21 21:21:00,
2013-09-21 17:26:00,65.9,48.4,29.70,North,351,7.0,16.0,53,0.00,,,0.03,WUHU216DAVISVP2,2013-09-21 21:26:00,
2013-09-21 17:31:00,65.5,49.0,29.70,WNW,299,7.0,16.0,55,0.00,,,0.03,WUHU216DAVISVP2,2013-09-21 21:31:00,
2013-09-21 17:36:00,64.9,48.4,29.71,NNW,336,11.0,15.0,55,0.00,,,0.03,WUHU216DAVISVP2,2013-09-21 21:36:00,
2013-09-21 17:41:00,64.5,49.1,29.71,NW,321,6.0,15.0,57,0.00,,,0.03,WUHU216DAVISVP2,2013-09-21 21:41:00,
2013-09-21 17:46:00,65.2,49.2,29.71,NW,317,9.0,12.0,56,0.00,,,0.03,WUHU216DAVISVP2,2013-09-21 21:46:00,
2013-09-21 17:51:00,65.3,48.8,29.71,NW,325,5.0,12.0,55,0.00,,,0.03,WUHU216DAVISVP2,2013-09-21 21:51:00,
2013-09-21 17:56:00,65.5,48.5,29.71,WNW,283,9.0,18.0,54,0.00,,,0.03,WUHU216DAVISVP2,2013-09-21 21:56:00,
2013-09-21 18:01:00,64.7,48.8,29.72,West,274,8.0,18.0,56,0.00,,,0.03,WUHU216DAVISVP2,2013-09-21 22:01:00,
2013-09-21 18:06:00,64.0,49.1,29.72,NW,306,3.0,14.0,58,0.00,,,0.03,WUHU216DAVISVP2,2013-09-21 22:06:00,
2013-09-21 18:11:00,63.6,49.1,29.72,NW,320,1.0,10.0,59,0.00,,,0.03,WUHU216DAVISVP2,2013-09-21 22:11:00,
2013-09-21 18:16:00,63.2,49.2,29.72,NW,317,2.0,8.0,60,0.00,,,0.03,WUHU216DAVISVP2,2013-09-21 22:16:00,
2013-09-21 18:21:00,62.9,49.8,29.72,North,349,7.0,8.0,62,0.00,,,0.03,WUHU216DAVISVP2,2013-09-21 22:21:00,
2013-09-21 18:26:00,62.7,49.6,29.72,NW,304,4.0,9.0,62,0.00,,,0.03,WUHU216DAVISVP2,2013-09-21 22:26:00,
2013-09-21 18:31:00,62.6,49.5,29.73,NW,315,6.0,9.0,62,0.00,,,0.03,WUHU216DAVISVP2,2013-09-21 22:31:00,
2013-09-21 18:36:00,62.6,50.0,29.73,NNW,336,8.0,9.0,63,0.00,,,0.03,WUHU216DAVISVP2,2013-09-21 22:36:00,
2013-09-21 18:41:00,62.5,49.9,29.73,NNW,329,3.0,9.0,63,0.00,,,0.03,WUHU216DAVISVP2,2013-09-21 22:41:00,
2013-09-21 18:46:00,62.5,50.3,29.73,NNW,329,1.0,9.0,64,0.00,,,0.03,WUHU216DAVISVP2,2013-09-21 22:46:00,
2013-09-21 18:51:00,62.4,50.6,29.73,NW,319,2.0,9.0,65,0.00,,,0.03,WUHU216DAVISVP2,2013-09-21 22:51:00,
2013-09-21 18:56:00,62.2,50.4,29.73,NW,314,0.0,7.0,65,0.00,,,0.03,WUHU216DAVISVP2,2013-09-21 22:56:00,
2013-09-21 19:01:00,62.2,50.0,29.73,NNW,336,4.0,8.0,64,0.00,,,0.03,WUHU216DAVISVP2,2013-09-21 23:01:00,
2013-09-21 19:06:00,62.1,50.8,29.73,WNW,290,6.0,8.0,66,0.00,,,0.03,WUHU216DAVISVP2,2013-09-21 23:06:00,
2013-09-21 19:11:00,62.1,50.8,29.73,WNW,300,5.0,10.0,66,0.00,,,0.03,WUHU216DAVISVP2,2013-09-21 23:11:00,
2013-09-21 19:16:00,61.9,50.6,29.73,NNW,334,4.0,10.0,66,0.00,,,0.03,WUHU216DAVISVP2,2013-09-21 23:16:00,
2013-09-21 19:21:00,61.6,50.7,29.73,West,272,8.0,9.0,67,0.00,,,0.03,WUHU216DAVISVP2,2013-09-21 23:21:00,
2013-09-21 19:26:00,61.2,50.3,29.73,NW,307,1.0,9.0,67,0.00,,,0.03,WUHU216DAVISVP2,2013-09-21 23:26:00,
2013-09-21 19:31:00,60.9,50.4,29.73,West,267,5.0,9.0,68,0.00,,,0.03,WUHU216DAVISVP2,2013-09-21 23:31:00,
2013-09-21 19:36:00,60.6,50.5,29.74,WNW,288,3.0,8.0,69,0.00,,,0.03,WUHU216DAVISVP2,2013-09-21 23:36:00,
2013-09-21 19:41:00,60.5,50.4,29.74,WNW,290,3.0,8.0,69,0.00,,,0.03,WUHU216DAVISVP2,2013-09-21 23:41:00,
2013-09-21 19:46:00,60.2,50.1,29.74,WNW,288,3.0,7.0,69,0.00,,,0.03,WUHU216DAVISVP2,2013-09-21 23:46:00,
2013-09-21 19:51:00,60.0,49.9,29.74,West,279,4.0,7.0,69,0.00,,,0.03,WUHU216DAVISVP2,2013-09-21 23:51:00,
2013-09-21 19:56:00,59.8,50.1,29.74,WNW,300,2.0,7.0,70,0.00,,,0.03,WUHU216DAVISVP2,2013-09-21 23:56:00,
2013-09-21 20:01:00,59.6,49.9,29.75,WNW,284,6.0,7.0,70,0.00,,,0.03,WUHU216DAVISVP2,2013-09-22 00:01:00,
2013-09-21 20:06:00,59.3,50.0,29.75,WNW,302,3.0,7.0,71,0.00,,,0.03,WUHU216DAVISVP2,2013-09-22 00:06:00,
2013-09-21 20:11:00,59.1,49.8,29.75,NW,309,2.0,9.0,71,0.00,,,0.03,WUHU216DAVISVP2,2013-09-22 00:11:00,
2013-09-21 20:16:00,59.0,50.1,29.75,WNW,282,2.0,9.0,72,0.00,,,0.03,WUHU216DAVISVP2,2013-09-22 00:16:00,
2013-09-21 20:21:00,58.9,50.4,29.75,West,279,5.0,9.0,73,0.00,,,0.03,WUHU216DAVISVP2,2013-09-22 00:21:00,
2013-09-21 20:26:00,58.9,50.4,29.75,WNW,291,4.0,7.0,73,0.00,,,0.03,WUHU216DAVISVP2,2013-09-22 00:26:00,
2013-09-21 20:31:00,58.8,50.3,29.76,West,279,2.0,8.0,73,0.00,,,0.03,WUHU216DAVISVP2,2013-09-22 00:31:00,
2013-09-21 20:36:00,58.7,50.5,29.75,WNW,301,1.0,8.0,74,0.00,,,0.03,WUHU216DAVISVP2,2013-09-22 00:36:00,
2013-09-21 20:41:00,58.8,50.6,29.76,WNW,302,3.0,7.0,74,0.00,,,0.03,WUHU216DAVISVP2,2013-09-22 00:41:00,
2013-09-21 20:46:00,58.9,50.4,29.76,NW,311,5.0,11.0,73,0.00,,,0.03,WUHU216DAVISVP2,2013-09-22 00:46:00,
2013-09-21 20:51:00,58.9,50.4,29.77,NW,319,2.0,11.0,73,0.00,,,0.03,WUHU216DAVISVP2,2013-09-22 00:51:00,
2013-09-21 20:56:00,59.0,50.1,29.77,NW,325,2.0,10.0,72,0.00,,,0.03,WUHU216DAVISVP2,2013-09-22 00:56:00,
2013-09-21 21:01:00,58.9,50.0,29.77,WNW,284,5.0,8.0,72,0.00,,,0.03,WUHU216DAVISVP2,2013-09-22 01:01:00,
2013-09-21 21:06:00,59.0,50.1,29.77,WNW,293,6.0,9.0,72,0.00,,,0.03,WUHU216DAVISVP2,2013-09-22 01:06:00,
2013-09-21 21:11:00,58.9,50.4,29.77,NNW,347,6.0,10.0,73,0.00,,,0.03,WUHU216DAVISVP2,2013-09-22 01:11:00,
2013-09-21 21:16:00,58.7,49.8,29.77,NW,310,5.0,13.0,72,0.00,,,0.03,WUHU216DAVISVP2,2013-09-22 01:16:00,
2013-09-21 21:21:00,58.6,50.1,29.77,NNW,331,5.0,13.0,73,0.00,,,0.03,WUHU216DAVISVP2,2013-09-22 01:21:00,
2013-09-21 21:26:00,58.4,49.9,29.77,North,355,2.0,10.0,73,0.00,,,0.03,WUHU216DAVISVP2,2013-09-22 01:26:00,
2013-09-21 21:31:00,58.0,49.9,29.77,NNW,336,2.0,8.0,74,0.00,,,0.03,WUHU216DAVISVP2,2013-09-22 01:31:00,
2013-09-21 21:36:00,57.7,49.6,29.77,NW,315,5.0,7.0,74,0.00,,,0.03,WUHU216DAVISVP2,2013-09-22 01:36:00,
2013-09-21 21:41:00,57.4,49.3,29.78,NW,315,2.0,9.0,74,0.00,,,0.03,WUHU216DAVISVP2,2013-09-22 01:41:00,
2013-09-21 21:46:00,57.1,49.3,29.78,WNW,300,4.0,9.0,75,0.00,,,0.03,WUHU216DAVISVP2,2013-09-22 01:46:00,
2013-09-21 21:51:00,56.9,49.1,29.78,North,349,2.0,8.0,75,0.00,,,0.03,WUHU216DAVISVP2,2013-09-22 01:51:00,
2013-09-21 21:56:00,56.6,49.1,29.78,NW,315,0.0,6.0,76,0.00,,,0.03,WUHU216DAVISVP2,2013-09-22 01:56:00,
2013-09-21 22:01:00,56.4,48.9,29.78,WNW,294,0.0,5.0,76,0.00,,,0.03,WUHU216DAVISVP2,2013-09-22 02:01:00,
2013-09-21 22:06:00,56.3,49.2,29.78,WNW,284,3.0,6.0,77,0.00,,,0.03,WUHU216DAVISVP2,2013-09-22 02:06:00,
2013-09-21 22:11:00,56.2,48.7,29.78,NW,325,5.0,6.0,76,0.00,,,0.03,WUHU216DAVISVP2,2013-09-22 02:11:00,
2013-09-21 22:16:00,56.0,48.5,29.78,NW,321,2.0,6.0,76,0.00,,,0.03,WUHU216DAVISVP2,2013-09-22 02:16:00,
2013-09-21 22:21:00,55.9,48.8,29.78,NW,312,2.0,5.0,77,0.00,,,0.03,WUHU216DAVISVP2,2013-09-22 02:21:00,
2013-09-21 22:26:00,55.8,48.7,29.78,WNW,302,0.0,4.0,77,0.00,,,0.03,WUHU216DAVISVP2,2013-09-22 02:26:00,
2013-09-21 22:31:00,55.8,48.7,29.78,WNW,298,1.0,4.0,77,0.00,,,0.03,WUHU216DAVISVP2,2013-09-22 02:31:00,
2013-09-21 22:36:00,55.8,48.7,29.79,WNW,299,0.0,4.0,77,0.00,,,0.03,WUHU216DAVISVP2,2013-09-22 02:36:00,
2013-09-21 22:41:00,55.8,48.8,29.79,NW,315,1.0,5.0,77,0.00,,,0.03,WUHU216DAVISVP2,2013-09-22 02:41:00,
2013-09-21 22:46:00,55.8,49.1,29.79,NW,307,1.0,5.0,78,0.00,,,0.03,WUHU216DAVISVP2,2013-09-22 02:46:00,
2013-09-21 22:51:00,55.9,48.9,29.79,WNW,300,2.0,5.0,77,0.00,,,0.03,WUHU216DAVISVP2,2013-09-22 02:51:00,
2013-09-21 22:56:00,56.0,49.0,29.79,NW,322,4.0,5.0,77,0.00,,,0.03,WUHU216DAVISVP2,2013-09-22 02:56:00,
2013-09-21 23:01:00,56.1,49.1,29.79,NW,322,1.0,4.0,77,0.00,,,0.03,WUHU216DAVISVP2,2013-09-22 03:01:00,
2013-09-21 23:06:00,56.1,49.1,29.79,WNW,299,2.0,5.0,77,0.00,,,0.03,WUHU216DAVISVP2,2013-09-22 03:06:00,
2013-09-21 23:11:00,56.1,49.1,29.79,NW,319,0.0,5.0,77,0.00,,,0.03,WUHU216DAVISVP2,2013-09-22 03:11:00,
2013-09-21 23:16:00,56.0,49.0,29.80,NNW,338,2.0,4.0,77,0.00,,,0.03,WUHU216DAVISVP2,2013-09-22 03:16:00,
2013-09-21 23:21:00,55.9,48.9,29.80,WNW,298,1.0,4.0,77,0.00,,,0.03,WUHU216DAVISVP2,2013-09-22 03:21:00,
2013-09-21 23:26:00,55.9,48.9,29.80,NW,324,2.0,7.0,77,0.00,,,0.03,WUHU216DAVISVP2,2013-09-22 03:26:00,
2013-09-21 23:31:00,55.8,48.8,29.80,NW,307,3.0,7.0,77,0.00,,,0.03,WUHU216DAVISVP2,2013-09-22 03:31:00,
2013-09-21 23:36:00,55.7,48.7,29.81,NW,321,3.0,7.0,77,0.00,,,0.03,WUHU216DAVISVP2,2013-09-22 03:36:00,
2013-09-21 23:41:00,55.6,48.6,29.80,NW,306,0.0,7.0,77,0.00,,,0.03,WUHU216DAVISVP2,2013-09-22 03:41:00,
2013-09-21 23:46:00,55.5,48.8,29.81,WNW,291,1.0,6.0,78,0.00,,,0.03,WUHU216DAVISVP2,2013-09-22 03:46:00,
2013-09-21 23:51:00,55.4,48.7,29.81,WNW,302,1.0,6.0,78,0.00,,,0.03,WUHU216DAVISVP2,2013-09-22 03:51:00,
2013-09-21 23:56:00,55.3,48.6,29.81,NW,317,3.0,5.0,78,0.00,,,0.03,WUHU216DAVISVP2,2013-09-22 03:56:00,